[[{"header":{"parameterUnit":"m.s-1","parameterCategory":1,"la1":30.2991,"la2":30.254,"lo1":-89.0895,"lo2":-89.0444,"dy":0.0017,"dx":0.0017,"nx":28,"ny":28,"refTime":"2024-02-17T09:00:00:Z","depth":0,"parameterNumber":2,"parameterNumberName":"U-component_of_WINDS"},"data":[0,0,0,0,0,0,0,0,0,0,0,0,0,0,0,0,0,0,0,0,0,0,0,0,0,0,0,0,0,0,0,0,0,0,0,0,0,0,0,0,0,0,0,0,0,0,0,0,0,0,0,0,0,0,0,0,0,0,-1.3242,-1.3243,0,-1.3339,-1.334,-1.3341,-1.3322,-1.332,-1.3318,-1.3316,-1.3418,-1.3423,-1.3427,0,0,0,0,0,0,0,0,0,0,0,0,0,-1.3041,-1.3044,-1.3242,-1.3243,-1.3244,-1.3339,-1.334,-1.3342,-1.3322,-1.332,-1.3318,-1.3316,-1.3417,-1.3422,-1.3427,0,0,0,0,0,0,0,0,0,0,0,0,0,-1.3132,-1.3046,-1.3242,-1.3246,-1.3247,-1.3339,-1.334,-1.3342,-1.3322,-1.332,-1.3317,-1.3315,-1.3415,-1.3422,-1.3428,-1.3522,0,0,-1.3448,-1.3451,0,0,0,0,0,0,0,0,-1.3127,-1.3139,-1.3244,-1.3246,-1.3247,-1.3315,-1.3307,-1.3402,-1.3323,-1.3294,-1.3316,-1.3313,-1.3386,-1.3395,-1.3419,-1.3527,-1.3531,-1.3449,-1.3453,-1.3456,-1.3457,0,0,0,0,0,0,0,-1.3121,-1.3135,-1.328,-1.3246,-1.3248,-1.3243,-1.3253,-1.3325,-1.3354,-1.3296,-1.3295,-1.3307,-1.3387,-1.3413,-1.3422,-1.3533,-1.3449,-1.3454,-1.3458,-1.3461,-1.3722,-1.3725,0,0,0,0,0,0,-1.3112,-1.313,-1.3277,-1.3283,-1.3179,-1.3249,-1.326,-1.3296,-1.3353,-1.3359,-1.3309,-1.3305,-1.3403,-1.3414,-1.3425,-1.3539,-1.3456,-1.3462,-1.3465,-1.3719,-1.3723,-1.3726,0,0,0,0,0,0,-1.3108,-1.3126,-1.3273,-1.3206,-1.3225,-1.3255,-1.3296,-1.33,-1.3326,-1.3363,-1.3368,-1.333,-1.3402,-1.3416,-1.3498,-1.3543,-1.3465,-1.3471,-1.3715,-1.372,-1.3724,-1.3768,0,0,0,0,0,0,-1.3102,-1.3124,-1.316,-1.3207,-1.3228,-1.3344,-1.3299,-1.3304,-1.3337,-1.3333,-1.3384,-1.339,-1.3401,-1.3488,-1.3504,-1.355,-1.3476,-1.3712,-1.3717,-1.3723,-1.3763,-1.3774,-1.3783,0,0,0,0,0,-1.3095,-1.3169,-1.3162,-1.318,-1.3274,-1.3347,-1.3359,-1.3369,-1.3341,-1.3377,-1.3401,-1.3389,-1.3535,-1.3497,-1.3515,-1.3563,-1.3709,-1.3716,-1.3722,-1.3759,-1.3772,-1.3783,0,0,0,0,0,0,-1.3128,-1.3176,-1.3168,-1.3259,-1.3299,-1.3343,-1.339,-1.3382,-1.3432,-1.3427,-1.3437,-1.3449,-1.3532,-1.3556,-1.3513,-1.3657,-1.3618,-1.3628,-1.3639,-1.3652,-1.3662,-1.3655,-1.3481,0,0,0,0,0,-1.3146,-1.32,-1.3239,-1.3316,-1.3336,-1.336,-1.3392,-1.3396,-1.3438,-1.3455,-1.3484,-1.3526,-1.3581,-1.3617,-1.367,-1.3765,-1.3777,-1.3808,-1.3817,-1.3825,-1.3835,-1.3887,-1.3902,-1.3748,-1.3748,-1.3748,0,0,-1.3183,-1.3216,-1.325,-1.3323,-1.3355,-1.3412,-1.3374,-1.3436,-1.3479,-1.3464,-1.3544,-1.3566,-1.3614,-1.3703,-1.3743,-1.3725,-1.388,-1.3834,-1.384,-1.3846,-1.3896,-1.391,-1.3923,-1.3752,-1.3752,-1.3751,0,0,-1.3281,-1.3311,-1.3378,-1.341,-1.3457,-1.3472,-1.3488,-1.3533,-1.3547,-1.3627,-1.3617,-1.3668,-1.3763,-1.3797,-1.3826,-1.3935,-1.3926,-1.3952,-1.4004,-1.4055,-1.4067,-1.4078,-1.4118,-1.4132,-1.3961,-1.3961,-1.3961,0,-1.3322,-1.3407,-1.3414,-1.3477,-1.351,-1.3497,-1.3566,-1.3596,-1.3659,-1.3682,-1.366,-1.3778,-1.3809,-1.3906,-1.3932,-1.3956,-1.3975,-1.3947,-1.4065,-1.4076,-1.4086,-1.4124,-1.4139,-1.3964,-1.3963,-1.3963,-1.3963,0,-1.3456,-1.3515,-1.3563,-1.3623,-1.3661,-1.3726,-1.3743,-1.3781,-1.3781,-1.3798,-1.3879,-1.3915,-1.3975,-1.3998,-1.3999,-1.4095,-1.4082,-1.4062,-1.4023,-1.4104,-1.414,-1.4154,-1.3968,-1.3967,-1.3966,-1.3965,0,0,-1.3579,-1.364,-1.3658,-1.3685,-1.3735,-1.3782,-1.3846,-1.3903,-1.3936,-1.3979,-1.4034,-1.4113,-1.4095,-1.4129,-1.4133,-1.4177,-1.4262,-1.4152,-1.4153,-1.4172,-1.437,-1.4386,-1.4403,-1.4255,-1.4258,-1.426,-1.4367,0,-1.3683,-1.3796,-1.3804,-1.3907,-1.3962,-1.395,-1.4006,-1.4043,-1.406,-1.411,-1.4128,-1.4185,-1.4156,-1.4177,-1.422,-1.4242,-1.4302,-1.4234,-1.4307,-1.431,-1.4298,-1.4422,-1.4439,-1.4538,-1.4381,-1.4383,-1.4385,0,-1.3819,-1.3865,-1.3974,-1.4016,-1.4039,-1.4089,-1.4142,-1.4189,-1.4231,-1.424,-1.4277,-1.4275,-1.4341,-1.4298,-1.439,-1.4344,-1.4374,-1.4389,-1.4393,-1.4402,-1.4354,-1.4435,-1.457,-1.4586,-1.4407,-1.4405,-1.4404,0,-1.39,-1.3989,-1.4065,-1.4088,-1.4139,-1.4175,-1.4197,-1.4236,-1.427,-1.4316,-1.4338,-1.4392,-1.4422,-1.4463,-1.4475,-1.4443,-1.4567,-1.4525,-1.4578,-1.4578,-1.4607,-1.4605,-1.475,-1.4623,-1.4623,-1.4622,-1.4622,0,-1.4016,-1.4083,-1.4102,-1.415,-1.4224,-1.4231,-1.4305,-1.4326,-1.436,-1.4411,-1.4403,-1.4452,-1.4464,-1.4515,-1.4525,-1.46,-1.4613,-1.4623,-1.4625,-1.4625,-1.4624,-1.4646,-1.464,-1.4626,-1.4625,-1.4625,-1.4624,0,-1.412,-1.4136,-1.4218,-1.4258,-1.427,-1.4323,-1.4358,-1.4403,-1.4418,-1.4483,-1.4499,-1.4523,-1.4582,-1.4598,-1.4669,-1.4675,-1.4764,-1.4759,-1.475,-1.4751,-1.4803,-1.4798,-1.4969,-1.4992,-1.4848,-1.4849,-1.485,0,-1.4194,-1.4246,-1.4291,-1.4324,-1.4348,-1.4402,-1.4436,-1.4444,-1.448,-1.4531,-1.457,-1.4628,-1.4675,-1.477,-1.4794,-1.4848,-1.4845,-1.4901,-1.4853,-1.4851,-1.4847,-1.4845,-1.485,-1.4911,-1.4912,-1.4913,-1.4914,0,-1.4324,-1.4329,-1.4378,-1.443,-1.4471,-1.4512,-1.4552,-1.4579,-1.4593,-1.4634,-1.4694,-1.473,-1.4801,-1.4859,-1.4913,-1.4937,-1.4929,-1.4929,-1.4944,-1.4945,-1.4938,-1.4944,-1.4776,-1.4925,-1.4924,-1.4923,-1.4923,-1.4922,-1.4417,-1.4462,-1.45,-1.4555,-1.4585,-1.4622,-1.4667,-1.4687,-1.4737,-1.4795,-1.4797,-1.4862,-1.4901,-1.4973,-1.4999,-1.505,-1.5034,-1.5056,-1.5062,-1.5067,-1.5072,-1.4928,-1.506,-1.506,-1.5059,-1.5059,-1.5059,0,-1.4548,-1.4571,-1.4622,-1.4677,-1.472,-1.4706,-1.4749,-1.4786,-1.4843,-1.488,-1.4926,-1.4994,-1.505,-1.5077,-1.5133,-1.5168,-1.5166,-1.5183,-1.5181,-1.5187,-1.5084,-1.5066,-1.5184,-1.5184,-1.5184,-1.5184,-1.5184,-1.5183,-1.4621,-1.4696,-1.4705,-1.4795,-1.4818,-1.4882,-1.4907,-1.4941,-1.4971,-1.5047,-1.5093,-1.511,-1.5143,-1.52,-1.5251,-1.5257,-1.5279,-1.5298,-1.5303,-1.5207,-1.5194,-1.5182,-1.5165,-1.5302,-1.5302,-1.5402,-1.5403,-1.5403]},{"header":{"parameterUnit":"m.s-1","parameterCategory":1,"la1":30.2991,"la2":30.254,"lo1":-89.0895,"lo2":-89.0444,"dy":0.0017,"dx":0.0017,"nx":28,"ny":28,"refTime":"2024-02-17T09:00:00:Z","depth":0,"parameterNumber":3,"parameterNumberName":"V-component_of_WINDS"},"data":[0,0,0,0,0,0,0,0,0,0,0,0,0,0,0,0,0,0,0,0,0,0,0,0,0,0,0,0,0,0,0,0,0,0,0,0,0,0,0,0,0,0,0,0,0,0,0,0,0,0,0,0,0,0,0,0,0,0,-6.9417,-6.9418,0,-6.9538,-6.9539,-6.954,-6.9472,-6.9468,-6.9465,-6.9462,-6.958,-6.9586,-6.9592,0,0,0,0,0,0,0,0,0,0,0,0,0,-6.912,-6.9126,-6.9417,-6.9418,-6.942,-6.9537,-6.9539,-6.9541,-6.9472,-6.9468,-6.9464,-6.946,-6.9578,-6.9585,-6.9593,0,0,0,0,0,0,0,0,0,0,0,0,0,-6.9245,-6.9127,-6.9416,-6.94,-6.94,-6.9537,-6.9539,-6.9541,-6.9473,-6.9468,-6.9463,-6.9458,-6.9575,-6.9585,-6.9594,-6.9753,0,0,-6.9623,-6.9627,0,0,0,0,0,0,0,0,-6.9238,-6.9256,-6.9401,-6.9401,-6.9401,-6.9485,-6.9478,-6.9612,-6.9474,-6.9445,-6.9462,-6.9456,-6.9552,-6.9563,-6.9596,-6.9758,-6.9763,-6.9623,-6.9629,-6.9633,-6.9636,0,0,0,0,0,0,0,-6.923,-6.9251,-6.9464,-6.9403,-6.9403,-6.9384,-6.9396,-6.9503,-6.9525,-6.9447,-6.9442,-6.9458,-6.9551,-6.9588,-6.9599,-6.9765,-6.9623,-6.9632,-6.9637,-6.9641,-7.0062,-7.0067,0,0,0,0,0,0,-6.9223,-6.9244,-6.946,-6.9468,-6.9306,-6.9394,-6.9407,-6.9463,-6.9524,-6.9528,-6.9462,-6.9454,-6.9574,-6.9588,-6.9603,-6.9792,-6.9633,-6.9642,-6.9647,-7.0056,-7.0063,-7.0069,0,0,0,0,0,0,-6.9217,-6.9243,-6.9455,-6.9355,-6.938,-6.9404,-6.9467,-6.9468,-6.9504,-6.9535,-6.9538,-6.9496,-6.9571,-6.9589,-6.9716,-6.9795,-6.9646,-6.9655,-7.005,-7.0058,-7.0066,-7.0173,0,0,0,0,0,0,-6.9209,-6.9241,-6.9304,-6.9357,-6.9386,-6.9569,-6.9472,-6.9474,-6.9522,-6.9512,-6.9568,-6.9572,-6.9568,-6.9702,-6.9725,-6.9806,-6.9662,-7.0043,-7.0054,-7.0063,-7.0163,-7.0184,-7.0203,0,0,0,0,0,-6.9198,-6.9328,-6.9307,-6.9334,-6.9465,-6.9574,-6.9591,-6.9585,-6.9528,-6.959,-6.9609,-6.957,-6.9783,-6.9716,-6.9741,-6.9826,-7.0038,-7.0051,-7.0063,-7.0154,-7.018,-7.0202,0,0,0,0,0,0,-6.9281,-6.9335,-6.9312,-6.9463,-6.9515,-6.9562,-6.964,-6.9613,-6.9681,-6.9669,-6.9657,-6.967,-6.9803,-6.9826,-6.9751,-6.9982,-6.9901,-6.9919,-6.9962,-6.9987,-7.0006,-6.9998,-6.967,0,0,0,0,0,-6.9318,-6.9404,-6.9445,-6.9574,-6.9601,-6.9617,-6.9664,-6.9655,-6.9708,-6.9729,-6.9757,-6.9808,-6.9886,-6.9937,-7.0011,-7.0165,-7.0176,-7.0236,-7.0256,-7.0272,-7.0288,-7.037,-7.0397,-7.011,-7.011,-7.0109,0,0,-6.9393,-6.9432,-6.9487,-6.9592,-6.9631,-6.9719,-6.9635,-6.9732,-6.9796,-6.9742,-6.9865,-6.9887,-6.9943,-7.0084,-7.0147,-7.0108,-7.0369,-7.0288,-7.03,-7.0307,-7.0385,-7.0413,-7.0437,-7.0118,-7.0117,-7.0115,0,0,-6.9575,-6.9614,-6.9726,-6.9767,-6.9828,-6.9837,-6.9864,-6.9916,-6.9929,-7.0052,-7.0013,-7.0088,-7.0223,-7.0264,-7.0303,-7.0499,-7.0465,-7.0523,-7.0627,-7.0708,-7.073,-7.075,-7.082,-7.0845,-7.0539,-7.0539,-7.0539,0,-6.966,-6.9793,-6.9786,-6.9886,-6.9933,-6.9889,-7.0001,-7.0041,-7.0122,-7.0154,-7.0108,-7.0277,-7.0311,-7.0461,-7.0509,-7.0541,-7.057,-7.0517,-7.0728,-7.0748,-7.0766,-7.0832,-7.0859,-7.0546,-7.0545,-7.0544,-7.0543,0,-6.9895,-6.9987,-7.007,-7.0151,-7.0207,-7.0312,-7.0319,-7.0375,-7.0362,-7.0375,-7.0499,-7.0538,-7.0619,-7.0654,-7.064,-7.0802,-7.0775,-7.0729,-7.0648,-7.0801,-7.0862,-7.0888,-7.0555,-7.0553,-7.0551,-7.0549,0,0,-7.0133,-7.021,-7.024,-7.0276,-7.034,-7.041,-7.0512,-7.0593,-7.0641,-7.0697,-7.0782,-7.0897,-7.0855,-7.0899,-7.0889,-7.096,-7.1112,-7.0905,-7.0906,-7.0942,-7.1291,-7.1325,-7.1355,-7.109,-7.1095,-7.1098,-7.1286,0,-7.0319,-7.0501,-7.0497,-7.0665,-7.075,-7.0709,-7.0798,-7.0845,-7.086,-7.0932,-7.0947,-7.1029,-7.0967,-7.0993,-7.1061,-7.1079,-7.1182,-7.1066,-7.1167,-7.117,-7.1155,-7.1387,-7.1424,-7.16,-7.131,-7.1314,-7.1317,0,-7.0561,-7.0628,-7.0805,-7.0855,-7.0891,-7.0971,-7.1044,-7.1114,-7.1166,-7.1171,-7.122,-7.1199,-7.1301,-7.1216,-7.1355,-7.1276,-7.1317,-7.1332,-7.1338,-7.1348,-7.1253,-7.1403,-7.1655,-7.1682,-7.1356,-7.1352,-7.135,0,-7.0718,-7.0851,-7.0974,-7.1006,-7.1068,-7.1125,-7.1153,-7.12,-7.1249,-7.1312,-7.1343,-7.1416,-7.1456,-7.1512,-7.151,-7.1449,-7.1651,-7.1566,-7.1657,-7.1657,-7.1701,-7.1698,-7.1964,-7.1727,-7.1727,-7.1727,-7.1726,0,-7.0926,-7.1036,-7.1045,-7.1121,-7.1242,-7.1235,-7.1354,-7.1376,-7.1418,-7.1496,-7.1464,-7.1537,-7.1531,-7.1604,-7.1603,-7.1717,-7.1736,-7.1741,-7.174,-7.1745,-7.1744,-7.1771,-7.1759,-7.1734,-7.1732,-7.1731,-7.1729,0,-7.1121,-7.1132,-7.1264,-7.1312,-7.1326,-7.1413,-7.1453,-7.1524,-7.1535,-7.1634,-7.1656,-7.1674,-7.1758,-7.1762,-7.1859,-7.1858,-7.1997,-7.1982,-7.1981,-7.1978,-7.2068,-7.2059,-7.236,-7.2399,-7.2137,-7.214,-7.2142,0,-7.1254,-7.1338,-7.1395,-7.1446,-7.1478,-7.1559,-7.1609,-7.1605,-7.1657,-7.1722,-7.1784,-7.1866,-7.1931,-7.2067,-7.2087,-7.216,-7.2146,-7.2247,-7.2157,-7.2159,-7.2148,-7.2143,-7.2151,-7.2264,-7.2267,-7.227,-7.2271,0,-7.1488,-7.1489,-7.1563,-7.1639,-7.1699,-7.1758,-7.1813,-7.1855,-7.1857,-7.1917,-7.2004,-7.2055,-7.2154,-7.2235,-7.2306,-7.2332,-7.2302,-7.23,-7.2324,-7.233,-7.2326,-7.2329,-7.2028,-7.2293,-7.2291,-7.2289,-7.2288,-7.2287,-7.1656,-7.1728,-7.178,-7.1863,-7.1904,-7.1955,-7.2024,-7.2045,-7.2118,-7.22,-7.2192,-7.2288,-7.2335,-7.2428,-7.246,-7.2533,-7.2499,-7.2534,-7.2544,-7.2553,-7.2562,-7.2314,-7.2546,-7.2545,-7.2545,-7.2544,-7.2544,0,-7.1888,-7.1919,-7.1995,-7.2074,-7.2139,-7.2106,-7.2165,-7.2221,-7.2306,-7.2354,-7.2419,-7.2518,-7.2596,-7.2622,-7.2697,-7.2751,-7.2739,-7.2771,-7.2767,-7.2773,-7.2589,-7.256,-7.2779,-7.2779,-7.2779,-7.2779,-7.2779,-7.2779,-7.2016,-7.2137,-7.2144,-7.2283,-7.2313,-7.2409,-7.2445,-7.2492,-7.253,-7.2643,-7.2708,-7.2725,-7.2764,-7.2841,-7.291,-7.2916,-7.2945,-7.2982,-7.2982,-7.281,-7.2786,-7.2763,-7.2736,-7.2989,-7.2989,-7.316,-7.3161,-7.3163]}]]